Time,TemperatureF,DewpointF,PressureIn,WindDirection,WindDirectionDegrees,WindSpeedMPH,WindSpeedGustMPH,Humidity,HourlyPrecipIn,Conditions,Clouds,dailyrainin,SoftwareType,DateUTC
2017-09-22 00:02:00,54.7,42.3,29.91,SE,137,0.0,0.0,63,0.00,,,0.00,meteobridge,2017-09-22 07:02:00,
2017-09-22 00:07:00,54.3,42.4,29.91,SE,137,0.0,0.0,64,0.00,,,0.00,meteobridge,2017-09-22 07:07:00,
2017-09-22 00:12:00,54.1,42.6,29.91,SE,137,0.0,0.0,65,0.00,,,0.00,meteobridge,2017-09-22 07:12:00,
2017-09-22 00:17:00,54.0,42.1,29.91,SE,137,0.0,0.0,64,0.00,,,0.00,meteobridge,2017-09-22 07:17:00,
2017-09-22 00:22:00,53.8,42.3,29.91,SE,137,0.0,1.0,65,0.00,,,0.00,meteobridge,2017-09-22 07:22:00,
2017-09-22 00:27:00,53.6,42.1,29.91,SE,137,0.0,0.0,65,0.00,,,0.00,meteobridge,2017-09-22 07:27:00,
2017-09-22 00:32:00,53.4,41.9,29.91,SE,137,0.0,0.0,65,0.00,,,0.00,meteobridge,2017-09-22 07:32:00,
2017-09-22 00:37:00,53.4,42.3,29.91,SE,137,0.0,1.0,66,0.00,,,0.00,meteobridge,2017-09-22 07:37:00,
2017-09-22 00:42:00,53.4,41.9,29.91,SE,134,0.0,1.0,65,0.00,,,0.00,meteobridge,2017-09-22 07:42:00,
2017-09-22 00:47:00,53.4,41.9,29.91,SE,138,0.0,0.0,65,0.00,,,0.00,meteobridge,2017-09-22 07:47:00,
2017-09-22 00:52:00,53.8,42.3,29.91,SE,138,0.9,1.0,65,0.00,,,0.00,meteobridge,2017-09-22 07:52:00,
2017-09-22 00:57:00,53.8,42.3,29.91,SE,138,0.0,0.0,65,0.00,,,0.00,meteobridge,2017-09-22 07:57:00,
2017-09-22 01:02:00,54.0,42.1,29.91,SSE,148,0.0,0.0,64,0.00,,,0.00,meteobridge,2017-09-22 08:02:00,
2017-09-22 01:07:00,54.0,42.1,29.91,SSE,148,0.0,0.0,64,0.00,,,0.00,meteobridge,2017-09-22 08:07:00,
2017-09-22 01:12:00,54.1,42.3,29.91,SSE,148,0.0,0.0,64,0.00,,,0.00,meteobridge,2017-09-22 08:12:00,
2017-09-22 01:18:00,54.3,42.1,29.90,SSE,148,0.0,0.0,63,0.00,,,0.00,meteobridge,2017-09-22 08:18:00,
2017-09-22 01:23:00,54.3,42.1,29.91,SSE,148,0.0,0.0,63,0.00,,,0.00,meteobridge,2017-09-22 08:23:00,
2017-09-22 01:28:00,54.5,42.1,29.91,SSE,148,0.0,0.0,63,0.00,,,0.00,meteobridge,2017-09-22 08:28:00,
2017-09-22 01:33:00,54.5,42.1,29.91,SSE,148,0.0,0.0,63,0.00,,,0.00,meteobridge,2017-09-22 08:33:00,
2017-09-22 01:38:00,54.7,41.9,29.91,SSE,148,0.0,2.0,62,0.00,,,0.00,meteobridge,2017-09-22 08:38:00,
2017-09-22 01:43:00,54.7,41.9,29.91,SSE,148,0.0,0.0,62,0.00,,,0.00,meteobridge,2017-09-22 08:43:00,
2017-09-22 01:48:00,54.7,42.3,29.91,SSE,148,0.0,2.0,63,0.00,,,0.00,meteobridge,2017-09-22 08:48:00,
2017-09-22 01:53:00,54.3,42.1,29.91,SSE,148,0.0,0.0,63,0.00,,,0.00,meteobridge,2017-09-22 08:53:00,
2017-09-22 01:54:00,54.3,42.1,29.91,SSE,148,0.0,0.0,63,0.00,,,0.00,meteobridge,2017-09-22 08:54:00,
2017-09-22 01:59:00,54.3,42.4,29.91,SE,139,0.0,1.0,64,0.00,,,0.00,meteobridge,2017-09-22 08:59:00,
2017-09-22 02:04:00,54.1,42.3,29.91,SE,139,0.0,1.0,64,0.00,,,0.00,meteobridge,2017-09-22 09:04:00,
2017-09-22 02:09:00,54.1,42.3,29.90,SE,139,0.0,1.0,64,0.00,,,0.00,meteobridge,2017-09-22 09:09:00,
2017-09-22 02:14:00,54.0,42.4,29.90,SE,139,0.0,0.0,65,0.00,,,0.00,meteobridge,2017-09-22 09:14:00,
2017-09-22 02:19:00,54.0,42.4,29.91,SE,138,0.0,1.0,65,0.00,,,0.00,meteobridge,2017-09-22 09:19:00,
2017-09-22 02:25:00,54.0,42.4,29.91,ESE,117,0.0,3.0,65,0.00,,,0.00,meteobridge,2017-09-22 09:25:00,
2017-09-22 02:30:00,54.0,42.4,29.91,ESE,117,0.0,0.0,65,0.00,,,0.00,meteobridge,2017-09-22 09:30:00,
2017-09-22 02:32:00,54.0,42.4,29.91,ESE,117,0.0,0.0,65,0.00,,,0.00,meteobridge,2017-09-22 09:32:00,
2017-09-22 02:37:00,54.0,42.4,29.90,ESE,117,0.0,0.0,65,0.00,,,0.00,meteobridge,2017-09-22 09:37:00,
2017-09-22 02:42:00,54.0,42.4,29.90,ESE,117,0.0,0.0,65,0.00,,,0.00,meteobridge,2017-09-22 09:42:00,
2017-09-22 02:47:00,54.0,42.8,29.90,ESE,117,0.0,0.0,66,0.00,,,0.00,meteobridge,2017-09-22 09:47:00,
2017-09-22 02:52:00,53.8,42.6,29.90,ESE,117,0.0,0.0,66,0.00,,,0.00,meteobridge,2017-09-22 09:52:00,
2017-09-22 02:57:00,53.4,42.3,29.90,ESE,117,0.0,0.0,66,0.00,,,0.00,meteobridge,2017-09-22 09:57:00,
2017-09-22 03:02:00,53.1,42.4,29.91,ESE,117,0.0,0.0,67,0.00,,,0.00,meteobridge,2017-09-22 10:02:00,
2017-09-22 03:07:00,52.7,42.4,29.91,ESE,117,0.0,0.0,68,0.00,,,0.00,meteobridge,2017-09-22 10:07:00,
2017-09-22 03:12:00,52.3,42.4,29.91,ESE,117,0.0,0.0,69,0.00,,,0.00,meteobridge,2017-09-22 10:12:00,
2017-09-22 03:17:00,52.0,42.1,29.91,ESE,117,0.0,0.0,69,0.00,,,0.00,meteobridge,2017-09-22 10:17:00,
2017-09-22 03:22:00,51.4,41.9,29.91,ESE,117,0.0,0.0,70,0.00,,,0.00,meteobridge,2017-09-22 10:22:00,
2017-09-22 03:25:00,51.4,41.9,29.90,ESE,117,0.0,0.0,70,0.00,,,0.00,meteobridge,2017-09-22 10:25:00,
2017-09-22 03:30:00,51.1,42.1,29.90,ESE,117,0.0,0.0,71,0.00,,,0.00,meteobridge,2017-09-22 10:30:00,
2017-09-22 03:35:00,50.7,42.1,29.90,ESE,117,0.0,0.0,72,0.00,,,0.00,meteobridge,2017-09-22 10:35:00,
2017-09-22 03:40:00,50.4,41.7,29.90,ESE,117,0.0,0.0,72,0.00,,,0.00,meteobridge,2017-09-22 10:40:00,
2017-09-22 03:45:00,50.2,41.9,29.90,ESE,117,0.0,0.0,73,0.00,,,0.00,meteobridge,2017-09-22 10:45:00,
2017-09-22 03:50:00,49.8,41.9,29.90,ESE,117,0.0,0.0,74,0.00,,,0.00,meteobridge,2017-09-22 10:50:00,
2017-09-22 03:55:00,49.6,41.7,29.90,ESE,117,0.0,0.0,74,0.00,,,0.00,meteobridge,2017-09-22 10:55:00,
2017-09-22 04:00:00,49.5,41.9,29.90,ESE,117,0.0,0.0,75,0.00,,,0.00,meteobridge,2017-09-22 11:00:00,
2017-09-22 04:05:00,49.3,41.7,29.90,ESE,117,0.0,0.0,75,0.00,,,0.00,meteobridge,2017-09-22 11:05:00,
2017-09-22 04:11:00,48.9,41.7,29.90,ESE,117,0.0,0.0,76,0.00,,,0.00,meteobridge,2017-09-22 11:11:00,
2017-09-22 04:16:00,48.7,41.5,29.91,ESE,117,0.0,0.0,76,0.00,,,0.00,meteobridge,2017-09-22 11:16:00,
2017-09-22 04:21:00,48.6,41.4,29.91,ESE,117,0.0,0.0,76,0.00,,,0.00,meteobridge,2017-09-22 11:21:00,
2017-09-22 04:26:00,48.4,41.9,29.91,ESE,117,0.0,0.0,78,0.00,,,0.00,meteobridge,2017-09-22 11:26:00,
2017-09-22 04:31:00,48.2,42.1,29.91,ESE,117,0.0,0.0,79,0.00,,,0.00,meteobridge,2017-09-22 11:31:00,
2017-09-22 04:36:00,47.8,41.7,29.91,ESE,117,0.0,0.0,79,0.00,,,0.00,meteobridge,2017-09-22 11:36:00,
2017-09-22 04:41:00,47.7,41.2,29.91,ESE,117,0.0,0.0,78,0.00,,,0.00,meteobridge,2017-09-22 11:41:00,
2017-09-22 04:46:00,47.3,41.2,29.91,ESE,117,0.0,0.0,79,0.00,,,0.00,meteobridge,2017-09-22 11:46:00,
2017-09-22 04:51:00,47.1,41.0,29.90,ESE,117,0.0,0.0,79,0.00,,,0.00,meteobridge,2017-09-22 11:51:00,
2017-09-22 04:56:00,46.9,40.8,29.91,ESE,117,0.0,0.0,79,0.00,,,0.00,meteobridge,2017-09-22 11:56:00,
2017-09-22 05:01:00,46.6,40.8,29.91,ESE,117,0.0,0.0,80,0.00,,,0.00,meteobridge,2017-09-22 12:01:00,
2017-09-22 05:06:00,46.4,40.8,29.91,ESE,117,0.0,0.0,81,0.00,,,0.00,meteobridge,2017-09-22 12:06:00,
2017-09-22 05:11:00,46.2,40.6,29.91,ESE,117,0.0,0.0,81,0.00,,,0.00,meteobridge,2017-09-22 12:11:00,
2017-09-22 05:17:00,46.0,40.8,29.91,ESE,117,0.0,0.0,82,0.00,,,0.00,meteobridge,2017-09-22 12:17:00,
2017-09-22 05:22:00,45.9,40.6,29.91,ESE,117,0.0,0.0,82,0.00,,,0.00,meteobridge,2017-09-22 12:22:00,
2017-09-22 05:27:00,45.7,40.5,29.91,ESE,117,0.0,0.0,82,0.00,,,0.00,meteobridge,2017-09-22 12:27:00,
2017-09-22 05:32:00,45.7,40.5,29.91,ESE,117,0.0,0.0,82,0.00,,,0.00,meteobridge,2017-09-22 12:32:00,
2017-09-22 05:37:00,45.7,40.8,29.91,ESE,117,0.0,0.0,83,0.00,,,0.00,meteobridge,2017-09-22 12:37:00,
2017-09-22 05:42:00,45.5,40.6,29.91,ESE,117,0.0,0.0,83,0.00,,,0.00,meteobridge,2017-09-22 12:42:00,
2017-09-22 05:47:00,45.3,40.5,29.91,ESE,117,0.0,0.0,83,0.00,,,0.00,meteobridge,2017-09-22 12:47:00,
2017-09-22 05:52:00,45.1,40.3,29.91,ESE,117,0.0,0.0,83,0.00,,,0.00,meteobridge,2017-09-22 12:52:00,
2017-09-22 05:57:00,45.1,40.6,29.91,ESE,117,0.0,0.0,84,0.00,,,0.00,meteobridge,2017-09-22 12:57:00,
2017-09-22 06:02:00,45.0,40.5,29.91,ESE,117,0.0,0.0,84,0.00,,,0.00,meteobridge,2017-09-22 13:02:00,
2017-09-22 06:07:00,45.0,40.6,29.91,ESE,117,0.0,0.0,85,0.00,,,0.00,meteobridge,2017-09-22 13:07:00,
2017-09-22 06:12:00,45.0,40.6,29.91,ESE,117,0.0,0.0,85,0.00,,,0.00,meteobridge,2017-09-22 13:12:00,
2017-09-22 06:17:00,44.8,40.5,29.91,ESE,117,0.0,0.0,85,0.00,,,0.00,meteobridge,2017-09-22 13:17:00,
2017-09-22 06:22:00,44.6,40.5,29.92,ESE,117,0.0,0.0,85,0.00,,,0.00,meteobridge,2017-09-22 13:22:00,
2017-09-22 06:27:00,44.4,40.5,29.92,ESE,117,0.0,0.0,86,0.00,,,0.00,meteobridge,2017-09-22 13:27:00,
2017-09-22 06:32:00,44.4,40.5,29.92,ESE,117,0.0,0.0,86,0.00,,,0.00,meteobridge,2017-09-22 13:32:00,
2017-09-22 06:37:00,44.4,40.5,29.92,ESE,117,0.0,0.0,86,0.00,,,0.00,meteobridge,2017-09-22 13:37:00,
2017-09-22 06:43:00,44.4,40.8,29.92,ESE,117,0.0,0.0,87,0.00,,,0.00,meteobridge,2017-09-22 13:43:00,
2017-09-22 06:48:00,44.2,40.6,29.92,ESE,117,0.0,0.0,87,0.00,,,0.00,meteobridge,2017-09-22 13:48:00,
2017-09-22 06:53:00,44.2,40.6,29.92,ESE,117,0.0,0.0,87,0.00,,,0.00,meteobridge,2017-09-22 13:53:00,
2017-09-22 06:58:00,44.2,40.6,29.92,ESE,117,0.0,0.0,87,0.00,,,0.00,meteobridge,2017-09-22 13:58:00,
2017-09-22 07:03:00,44.2,40.6,29.93,ESE,117,0.0,0.0,87,0.00,,,0.00,meteobridge,2017-09-22 14:03:00,
2017-09-22 07:08:00,44.2,41.0,29.93,ESE,117,0.0,0.0,88,0.00,,,0.00,meteobridge,2017-09-22 14:08:00,
2017-09-22 07:13:00,44.2,41.0,29.93,ESE,117,0.0,0.0,88,0.00,,,0.00,meteobridge,2017-09-22 14:13:00,
2017-09-22 07:18:00,44.2,41.2,29.93,ESE,117,0.0,0.0,89,0.00,,,0.00,meteobridge,2017-09-22 14:18:00,
2017-09-22 07:23:00,44.2,41.2,29.93,ESE,117,0.0,0.0,89,0.00,,,0.00,meteobridge,2017-09-22 14:23:00,
2017-09-22 07:28:00,44.2,41.0,29.93,ESE,117,0.0,0.0,88,0.00,,,0.00,meteobridge,2017-09-22 14:28:00,
2017-09-22 07:33:00,44.4,41.4,29.93,ESE,117,0.0,0.0,89,0.00,,,0.00,meteobridge,2017-09-22 14:33:00,
2017-09-22 07:38:00,44.4,41.4,29.93,ESE,117,0.0,0.0,89,0.00,,,0.00,meteobridge,2017-09-22 14:38:00,
2017-09-22 07:44:00,44.4,41.4,29.93,ESE,117,0.0,0.0,89,0.00,,,0.00,meteobridge,2017-09-22 14:44:00,
2017-09-22 07:49:00,44.6,41.5,29.94,ESE,117,0.0,0.0,89,0.00,,,0.00,meteobridge,2017-09-22 14:49:00,
2017-09-22 07:54:00,44.8,41.7,29.94,ESE,117,0.0,0.0,89,0.00,,,0.00,meteobridge,2017-09-22 14:54:00,
2017-09-22 07:55:00,44.8,41.7,29.94,ESE,117,0.0,0.0,89,0.00,,,0.00,meteobridge,2017-09-22 14:55:00,
2017-09-22 08:00:00,45.0,41.9,29.94,ESE,117,0.0,0.0,89,0.00,,,0.00,meteobridge,2017-09-22 15:00:00,
2017-09-22 08:05:00,45.1,42.4,29.94,ESE,117,0.0,0.0,90,0.00,,,0.00,meteobridge,2017-09-22 15:05:00,
2017-09-22 08:10:00,45.7,43.0,29.94,ESE,117,0.0,0.0,90,0.00,,,0.00,meteobridge,2017-09-22 15:10:00,
2017-09-22 08:15:00,46.4,43.9,29.94,ESE,117,0.0,0.0,91,0.00,,,0.00,meteobridge,2017-09-22 15:15:00,
2017-09-22 08:20:00,47.5,44.8,29.94,ESE,117,0.0,0.0,90,0.00,,,0.00,meteobridge,2017-09-22 15:20:00,